Погода в Покровке

Россия / Астраханская область     48°21′55″N   46°04′48″E
темп.,
°C
ветер,
м/с
пор.,
м/с
влажн.,
%
обл.,
%
осадки,
мм/ч
давл.,
гПа
погр.,
м
17 апреля, сб
сб1701:00+14зсз4656100 0.1 1018108
04:00+12сз5106697 0.1 1019207
07:00+12ссз3467100 0.0 101888
10:00+17зсз2245100 0.0 1019310
13:00+17зюз8851100 0.0 10201052
16:00+13зсз4681100 0.3 1020343
19:00+13з4679100 0.0 1020685
22:00+11з4787100 0.1 1021259
18 апреля, вс
вс1801:00+9зсз358943 0.0 1021111
04:00+8ссз23905 0.0 102135
07:00+9с118681 0.0 102126
10:00+14ссз0161100 0.0 1021635
13:00+17сз114298 0.0 10201868
16:00+18сз2136100 0.0 10192114
19:00+17сз334599 0.0 1019184
22:00+14ссв475596 0.0 1019155
19 апреля, пн
пн1901:00+12всв225981 0.0 101918
04:00+13в2357100 0.0 101854
07:00+12юв3459100 0.0 101896
10:00+15вюв3552100 0.0 1018355
13:00+15вюв4652100 0.0 1017351
16:00+17ю4656100 0.3 1016882
19:00+15в4667100 0.2 1015200
22:00+13юв4775100 0.9 1015231
20 апреля, вт
вт2001:00+12вюв4694100 3.1 1015187
04:00+12вюв61095100 6.2 1014326
07:00+12вюв61186100 0.9 1014351
10:00+14вюв81576100 1.1 1013565
13:00+17вюв81360100 0.1 10131147
16:00+19вюв121755100 0.1 10101280
19:00+18юв91557100 0.1 1013743
22:00+17юв81755100 0.2 1012743
21 апреля, ср
ср2101:00+15ю4865100 0.0 1015218
04:00+12св1286100 0.8 101790
07:00+12юв5887100 0.9 1017279
10:00+12ююв5686100 1.2 1019494
13:00+15ююз2365100 0.3 10191157
16:00+14юв3273100 0.4 1020528
19:00+13вюв5680100 0.2 1021343
22:00+11юв3686100 0.2 1022235